Starlink 30822

operational
NORAD ID: 58193 Int'l Des: 2023-167 Owner: SPXS Country: US Constellation: starlink
LEOCIRCULAR

About Starlink 30822

Description loading...

Live Position

Loading 3D Globe...

Upcoming Passes

Altitude History

Altitude vs Time

uPlot chart will show altitude changes over time

Two-Line Element Set

1 58193U 23167U 26015.16687990 .00000613 00000-0 60418-4 0 9998
2 58193 43.0037 76.7919 0001203 286.0072 74.0638 15.02540766122903
Epoch: Jan 15, 2026 • Age: 8 hours

Current Status

Altitude 558.2 km
Velocity 7.59 km/s
Sub-Earth Point 15.67°N, 156.14°E
Launch Date Oct 30, 2023
Age 2.2 years
Type internet

Technical Details

Classification Payload
Mass 730.00 kg
Dry Mass 700.00 kg
Total Mass 730.00 kg
Length 0.30 m
Diameter 4.10 m
Span 29.00 m
Shape Box + pan
Manufacturer SPXS
Bus Type Starlink V2M
Phase Status In Orbit
Owner/State SPXS/US

Large Constellations

Loading constellations...